Temp
9 8 8 8 8 8 8 8 8 8 8 8 8 8 8 7 7 7 7 7 6 6 6 6 6 6 6 6 6 6 6 6
8 8 8 8 8 8 8 8 8 8 8 8 8 7 7 7 7 7 7 6 6 6 6 6 6 6 6 6 6 6 6 6
8 8 8 8 8 7 7 7 7 7 7 7 7 7 7 7 7 7 6 6 6 6 6 6 6 6 6 6 6 6 5 5
8 8 8 7 7 7 7 7 7 7 6 6 6 6 6 6 6 6 6 6 6 6 6 6 6 6 6 6 6 6 6 6
8 7 7 7 7 7 7 7 6 6 6 6 6 6 6 6 6 6 6 6 6 6 6 6 6 5 5 5 5 5 5 5
8 7 7 7 7 6 6 6 6 6 5 5 6 6 6 6 6 6 6 6 6 5 5 5 5 5 5 5 5 5 5 5
7 7 7 6 6 6 6 6 6 5 5 5 6 6 6 6 6 6 6 6 5 5 5 5 4 4 4 4 4 4 4 4
7 7 6 6 6 6 5 5 5 5 5 5 5 5 5 5 5 5 5 5 5 5 5 5 4 4 4 4 4 4 4 4
7 6 6 6 6 5 5 5 5 5 5 5 5 5 5 5 5 5 4 4 4 4 4 4 4 3 3 3 3 3 3 3
7 6 6 5 5 5 5 5 5 5 5 5 4 4 4 4 4 4 3 3 3 4 4 4 4 3 3 3 2 2 2 2
6 6 5 5 5 5 4 4 4 4 4 4 4 4 3 3 3 3 3 3 3 3 3 3 3 3 3 2 2 2 2 1
6 6 5 5 5 4 4 4 4 4 3 3 3 3 3 3 3 3 3 3 2 2 2 2 2 3 2 2 1 1 1 1
6 5 5 4 4 4 4 4 3 3 3 3 3 2 2 2 2 2 2 1 1 1 1 1 1 1 1 1 -0 -1 -0 -0
6 5 5 4 4 4 4 3 3 3 3 2 2 1 1 1 1 1 1 1 0 -0 -0 -1 -1 -0 -0 0 1 -0 -1 -1
5 5 4 4 4 3 3 3 3 2 2 1 1 1 0 0 0 -0 -0 -1 -1 -1 -1 -1 -2 -2 -2 -2 -1 -0 -0 -1
5 5 4 4 3 3 2 2 2 1 1 0 0 -0 -0 -1 -1 -2 -2 -2 -2 -2 -3 -3 -3 -3 -3 -4 -3 -3 -2 -0
5 5 4 3 3 2 2 1 1 0 -1 -1 -1 -1 -1 -2 -2 -2 -2 -3 -3 -3 -4 -4 -4 -4 -4 -4 -4 -4 -4 -4
5 4 4 3 2 2 1 0 -0 -1 -1 -2 -2 -2 -2 -3 -3 -3 -3 -4 -4 -4 -5 -5 -5 -5 -5 -5 -5 -5 -4 -5
5 3 3 2 2 1 0 -1 -1 -2 -2 -2 -3 -3 -3 -3 -3 -4 -4 -4 -5 -5 -5 -5 -5 -5 -5 -5 -5 -5 -5 -5
5 3 2 2 1 1 -0 -1 -2 -2 -3 -3 -3 -3 -3 -4 -4 -4 -4 -5 -6 -6 -6 -6 -6 -6 -6 -6 -6 -6 -6 -6
Height
3164 3164 3164 3163 3163 3162 3160 3159 3157 3157 3156 3154 3153 3152 3150 3149 3148 3147 3146 3145 3144 3143 3142 3141 3140 3139 3137 3135 3133 3133 3133 3132
3160 3160 3160 3159 3159 3158 3157 3156 3155 3154 3153 3151 3150 3149 3148 3147 3147 3145 3144 3142 3140 3139 3138 3137 3136 3134 3132 3131 3130 3129 3129 3128
3157 3157 3157 3157 3156 3155 3154 3154 3153 3152 3151 3150 3148 3147 3146 3145 3144 3143 3141 3140 3138 3137 3136 3135 3133 3132 3130 3128 3127 3125 3125 3124
3155 3154 3154 3154 3154 3153 3152 3152 3151 3150 3149 3147 3146 3145 3144 3143 3141 3140 3138 3137 3135 3134 3132 3130 3128 3127 3125 3123 3122 3122 3121 3119
3152 3151 3151 3150 3150 3151 3150 3149 3148 3147 3146 3144 3142 3141 3140 3139 3137 3136 3134 3133 3132 3130 3128 3126 3123 3121 3119 3117 3115 3115 3114 3113
3148 3148 3147 3147 3147 3148 3148 3147 3146 3144 3143 3141 3139 3138 3137 3136 3133 3132 3130 3129 3128 3126 3123 3120 3118 3116 3113 3112 3110 3109 3107 3105
3144 3144 3144 3144 3144 3144 3145 3144 3143 3142 3140 3138 3136 3134 3133 3131 3129 3127 3126 3124 3122 3121 3117 3114 3112 3110 3107 3105 3103 3102 3099 3096
3140 3140 3140 3140 3140 3140 3141 3141 3140 3138 3137 3134 3132 3130 3129 3127 3125 3122 3120 3119 3116 3113 3110 3108 3105 3103 3100 3098 3096 3093 3091 3088
3136 3136 3137 3136 3136 3136 3137 3137 3135 3134 3132 3130 3127 3126 3124 3122 3120 3117 3115 3112 3109 3106 3102 3099 3096 3094 3092 3090 3088 3084 3082 3081
3131 3132 3132 3132 3131 3131 3132 3132 3131 3129 3127 3125 3122 3120 3118 3116 3114 3110 3108 3105 3101 3098 3094 3091 3089 3087 3085 3083 3079 3075 3073 3072
3126 3126 3126 3127 3127 3127 3127 3126 3125 3123 3121 3118 3117 3115 3113 3111 3108 3104 3101 3097 3093 3090 3086 3083 3081 3079 3077 3074 3071 3068 3066 3064
3119 3120 3120 3121 3122 3121 3121 3121 3120 3118 3116 3114 3112 3110 3108 3105 3101 3097 3093 3090 3087 3083 3079 3075 3072 3069 3068 3066 3064 3060 3058 3056
3113 3113 3114 3115 3116 3115 3115 3115 3114 3112 3110 3109 3107 3104 3102 3098 3095 3090 3086 3083 3080 3077 3073 3069 3065 3061 3058 3058 3057 3055 3053 3048
3107 3108 3109 3110 3109 3109 3110 3109 3108 3106 3104 3103 3101 3099 3097 3093 3089 3085 3081 3078 3073 3069 3065 3062 3057 3053 3049 3046 3043 3048 3046 3043
3101 3101 3103 3103 3104 3104 3104 3103 3101 3100 3098 3096 3093 3092 3089 3086 3082 3077 3073 3071 3067 3063 3058 3054 3051 3047 3042 3039 3033 3031 3029 3033
3094 3095 3097 3098 3098 3098 3098 3096 3095 3094 3092 3089 3087 3085 3083 3079 3075 3071 3067 3064 3060 3057 3052 3048 3044 3040 3037 3033 3029 3024 3018 3012
3088 3088 3090 3091 3092 3092 3091 3091 3089 3088 3086 3084 3082 3079 3076 3074 3070 3066 3063 3058 3054 3050 3047 3042 3039 3035 3029 3027 3025 3021 3016 3010
3082 3082 3083 3084 3084 3084 3084 3084 3083 3083 3080 3079 3076 3074 3071 3069 3065 3062 3057 3053 3049 3045 3041 3037 3033 3029 3025 3020 3017 3013 3008 3004
3076 3076 3076 3076 3076 3077 3078 3078 3078 3077 3076 3074 3071 3068 3067 3064 3061 3057 3051 3048 3045 3040 3036 3032 3026 3023 3020 3016 3011 3008 3003 2997
3068 3069 3070 3070 3071 3071 3071 3072 3071 3070 3070 3069 3067 3064 3062 3058 3055 3051 3046 3042 3039 3035 3030 3026 3023 3019 3014 3010 3006 3002 2998 2992
Wind_Speed
8 7 8 10 10 9 7 6 6 7 8 9 10 11 12 13 14 15 16 17 18 18 18 19 20 22 22 23 23 22 19 19
9 9 10 10 7 6 5 5 7 8 10 11 12 13 13 14 13 14 15 16 17 18 19 20 21 22 23 24 23 22 21 21
11 11 11 9 7 6 6 6 7 8 11 12 12 13 14 15 15 15 16 16 18 19 20 21 22 23 24 25 26 27 25 23
13 13 11 10 8 6 7 8 10 12 13 14 15 16 17 17 18 18 19 19 21 23 25 25 26 26 26 27 26 25 26 26
15 14 12 12 10 8 9 10 12 13 14 16 17 18 19 18 19 20 21 22 23 24 25 27 29 29 30 31 31 30 29 28
17 16 15 14 13 12 11 12 14 15 16 17 19 21 21 21 21 22 22 22 23 24 26 27 29 30 32 33 34 34 33 34
18 18 17 17 16 15 14 14 15 17 18 19 21 22 21 19 19 22 24 26 27 29 30 31 32 33 34 35 36 36 37 37
21 20 19 19 19 18 17 17 17 19 20 22 23 23 20 20 22 25 27 29 31 32 32 33 33 34 35 36 37 38 40 41
22 22 21 21 22 21 20 19 20 21 22 23 24 23 22 23 25 28 29 30 31 31 33 35 35 35 35 35 35 37 39 40
23 23 23 24 24 24 22 21 22 24 24 24 24 23 25 26 28 30 30 31 33 34 35 36 36 35 34 33 34 36 35 35
25 25 26 27 26 25 24 24 25 26 26 26 24 24 25 27 29 30 32 33 34 34 34 34 33 33 33 32 33 35 34 32
28 29 29 29 27 26 26 26 26 27 27 26 26 26 27 29 31 32 32 32 32 33 34 35 35 35 34 33 32 33 32 31
30 31 30 30 29 28 28 28 27 28 28 27 27 27 27 29 31 31 31 31 30 30 31 32 33 35 36 33 30 30 30 30
33 32 32 31 30 30 30 29 29 29 29 28 26 27 28 29 30 31 32 31 31 31 32 33 34 35 36 37 39 32 29 28
33 33 33 33 32 31 30 30 30 29 28 28 27 28 29 30 30 31 31 30 31 32 34 35 35 34 35 36 39 41 40 32
31 34 34 33 32 31 30 29 29 28 26 27 28 29 30 30 30 31 32 33 32 32 33 34 34 34 33 33 35 38 42 47
29 32 33 33 33 32 31 29 28 26 25 26 28 29 30 30 30 31 33 33 33 32 32 31 32 32 33 33 33 34 35 40
27 28 31 33 33 32 30 28 26 24 24 25 26 28 29 30 31 31 33 33 33 32 30 30 30 31 32 33 34 35 37 38
28 27 28 31 33 31 30 27 25 23 24 24 25 28 29 30 31 32 33 34 33 31 30 29 29 30 31 32 32 34 35 38
30 28 27 29 31 31 29 27 25 24 24 25 26 29 30 31 31 32 34 33 31 30 29 28 30 31 31 32 32 33 34 36
Wind_Direction
230 256 276 279 280 275 279 295 306 319 319 314 308 306 301 297 296 293 292 294 294 294 294 293 295 294 291 288 288 288 287 285
247 265 278 281 275 266 277 295 309 322 318 316 315 314 307 306 306 303 302 303 300 300 299 297 294 290 289 291 293 291 287 282
263 275 286 276 262 266 281 298 308 317 315 313 313 312 312 312 314 313 312 311 309 310 309 309 306 303 299 294 291 290 287 283
267 278 277 259 250 258 284 301 312 317 317 317 315 311 307 308 309 307 306 306 307 309 308 305 302 299 296 294 293 292 289 283
272 279 264 246 246 260 281 295 304 308 310 309 308 305 303 303 302 299 300 302 303 301 298 295 293 292 290 289 288 286 285 283
271 272 257 251 257 265 275 289 297 303 305 304 304 304 304 305 301 300 300 301 299 296 293 290 289 288 287 286 285 283 281 277
269 266 255 254 259 267 273 281 291 301 302 301 300 299 300 299 299 300 301 299 297 296 294 292 290 287 285 283 282 282 279 275
267 260 252 254 257 263 271 281 292 301 302 300 299 299 299 298 298 297 297 297 297 295 293 291 290 288 286 284 282 279 278 277
263 259 251 254 260 267 273 282 290 298 298 297 298 297 296 297 298 297 298 298 297 298 298 296 294 293 291 288 286 283 279 278
257 254 251 253 258 265 273 281 290 297 299 298 295 294 295 299 300 300 302 303 303 302 299 299 298 297 295 294 290 287 285 280
251 251 250 252 258 265 273 280 289 297 299 296 292 292 297 302 303 304 306 306 304 303 302 300 298 296 295 295 293 291 291 288
249 249 249 253 258 264 272 281 289 294 294 291 292 296 304 305 306 308 307 305 304 303 301 300 300 298 297 296 295 294 293 291
248 248 250 252 257 264 272 279 286 290 291 289 294 300 304 306 307 306 305 304 303 301 302 303 302 302 301 297 294 291 291 290
252 250 250 253 257 264 271 279 286 290 288 290 295 301 307 309 309 309 308 309 310 309 308 307 305 305 303 302 298 290 285 284
255 253 252 254 257 264 271 278 286 287 287 291 299 307 312 316 317 314 312 313 313 313 311 310 310 311 311 310 307 303 298 291
257 257 255 255 257 262 268 276 281 282 288 294 303 311 317 323 321 317 317 317 316 315 312 312 312 312 313 314 312 309 308 302
256 257 257 255 256 260 266 273 276 280 288 296 305 312 321 326 322 320 319 319 318 316 314 314 313 313 313 312 310 309 308 306
258 262 261 257 257 258 263 267 272 280 288 297 306 314 321 325 322 320 319 318 316 315 313 314 316 315 316 316 315 313 311 310
268 267 262 256 254 257 260 264 271 280 287 296 305 312 319 322 321 320 317 314 312 312 313 316 313 314 315 314 314 312 311 311
269 273 270 259 255 256 259 264 271 277 285 293 303 309 316 318 319 317 315 311 310 311 312 312 312 313 313 313 312 311 311 310